Find Starlink 35018

NORAD ID: 65288 Int'l Des: 2025-184 Owner: SPXS Country: US Constellation: starlink operational
LEOCIRCULARRETROGRADESSO

現在のビュー

3D地球を読み込み中...

About Starlink 35018

Starlink 35018 (NORAD 65288) is a starlink constellation satellite (v2 mini) launched Aug 22, 2025 by SPXS of US. It operates in LEO, CIRCULAR, RETROGRADE, SSO orbit with a mass of 575.00 kg.

Starlink 35018について

説明を読み込み中...

次回通過

Passes for default location (London). Set your location on the main map for personalized predictions.

高度履歴

Loading altitude history...

軌道要素

1 65288U 25184R 26194.37028786 .00214884 00000-0 14183-1 0 9997
2 65288 97.2812 244.5683 0001849 147.1838 212.9505 15.06351877 50211
Epoch: Jul 13, 2026 • Age: 24 hours

現在のステータス

高度 568.0 km
遠地点 / 近地点 N/A
速度 7.58 km/s
衛星直下点 -53.05°S, 165.41°W
打ち上げ日 Aug 22, 2025
運用期間 0.8 years
タイプ internet

技術仕様

分類 Payload
質量 575.00 kg
乾燥質量 530.00 kg
総質量 575.00 kg
長さ 0.30 m
直径 4.10 m
スパン 29.00 m
形状 Box + pan
製造者 SPXS
バスタイプ Starlink V2MO
フェーズステータス In Orbit
所有者/国 SPXS/US

Most Searched